SCP
0 0 0 0 0 0 0 0 0 0 0 0 0 0 0 0 0 0 0 0 0 0 0 1 0 0 0 0 0 0 0 0 0 0 0 0 0 0 0 0 0 0 0 0
0 0 0 0 0 0 0 0 0 0 0 0 0 0 0 0 0 0 0 0 0 0 0 1 1 1 0 0 0 0 0 0 0 0 0 0 0 0 0 0 0 0 0 0
0 -0 -0 0 0 0 0 0 0 0 0 0 0 0 0 0 0 0 0 0 0 0 0 1 1 1 1 1 0 0 0 0 0 0 0 0 0 0 0 0 0 0 0 0
0 0 0 0 0 0 0 0 0 0 0 0 0 0 0 0 0 0 0 0 0 0 1 1 1 1 1 1 1 0 0 0 0 0 0 0 0 0 0 0 0 0 0 0
0 0 0 0 0 0 0 0 0 0 0 0 0 0 0 0 0 0 0 0 0 0 1 1 1 1 1 1 1 1 0 0 0 0 0 0 0 0 0 0 0 0 0 0
0 0 0 0 0 0 0 0 0 0 0 0 0 0 0 0 0 0 0 0 0 1 1 1 1 1 1 1 1 1 1 0 0 0 0 0 0 0 0 0 0 0 0 0
0 0 0 0 0 0 0 0 0 0 0 0 0 0 0 0 0 0 0 0 1 1 1 1 1 1 1 1 1 1 1 1 1 0 0 0 0 0 0 0 0 0 0 0
0 0 0 0 0 0 0 0 0 0 0 0 0 0 0 0 0 0 0 1 1 1 1 1 1 1 1 1 1 1 1 1 1 1 1 0 0 0 0 0 0 0 0 0
0 0 0 0 0 0 0 0 0 0 0 0 0 0 0 0 0 0 1 1 1 1 1 1 1 1 1 1 1 1 1 1 1 1 1 1 0 0 0 0 0 0 0 0
-0 0 0 0 0 0 0 0 0 0 0 0 0 0 0 0 0 0 1 1 1 1 1 1 1 1 1 1 1 1 1 1 1 1 1 1 1 1 1 1 0 0 0 0
-0 0 0 0 0 0 0 0 0 0 0 0 0 0 0 0 0 0 0 1 1 1 1 1 1 1 1 1 1 1 1 1 1 1 1 1 1 1 1 1 1 1 0 0
0 0 0 0 0 0 0 0 0 0 0 0 0 0 0 0 0 0 0 1 1 1 1 1 1 1 1 1 1 1 1 1 1 1 1 1 1 1 1 1 1 1 1 1
0 0 0 0 0 0 0 0 0 0 0 0 0 0 0 0 0 0 1 1 1 1 1 1 1 1 1 1 1 1 1 1 1 1 1 1 1 1 1 1 1 1 1 1
0 0 0 0 0 0 0 0 0 0 0 0 0 0 0 0 1 1 1 1 1 1 1 1 1 1 1 1 1 1 1 1 1 1 1 1 1 1 1 1 1 1 1 1
0 0 0 0 0 0 0 0 0 0 0 0 0 0 0 0 1 1 1 1 1 1 1 1 1 1 1 1 1 1 1 1 1 1 1 1 1 1 1 1 1 1 1 1
0 0 0 0 0 0 0 0 0 0 0 0 0 0 0 1 1 1 1 1 1 1 1 1 1 1 1 1 1 1 1 1 1 1 1 1 1 1 1 1 1 1 1 1
0 0 0 0 0 0 0 0 0 0 0 0 0 0 1 1 1 1 1 1 1 1 1 1 1 1 1 1 1 1 1 1 2 2 2 2 1 1 1 1 1 1 1 1
0 0 0 0 0 0 0 0 0 0 0 0 0 1 1 1 1 1 1 1 1 1 1 1 1 1 1 1 1 1 1 1 2 2 2 2 2 1 1 1 1 1 1 1
0 0 0 0 0 0 0 0 0 0 0 0 1 1 1 1 1 1 1 1 1 1 1 1 1 1 1 1 1 1 1 2 2 2 2 2 2 2 1 1 1 1 1 1
0 0 0 0 0 0 0 0 0 0 0 0 1 1 1 1 1 1 1 1 1 1 1 1 1 1 1 1 1 1 1 2 2 2 2 2 2 2 1 1 1 1 1 1
0 0 0 0 0 0 0 0 0 0 0 0 0 1 1 1 1 1 1 1 1 1 1 1 1 1 1 1 1 1 1 1 1 1 2 2 2 2 1 1 1 1 1 1
0 0 0 0 0 0 0 0 0 0 0 0 0 0 0 1 1 1 1 1 1 1 1 1 1 1 1 1 1 1 1 1 1 1 1 2 2 2 1 1 1 1 1 0
0 0 0 0 0 0 0 0 0 0 0 0 0 0 0 1 1 1 1 1 1 1 1 1 1 1 1 1 1 1 1 1 1 1 1 1 1 1 1 1 1 0 0 0
0 0 0 0 0 0 0 0 0 0 0 0 0 0 0 0 1 1 1 2 2 1 1 1 1 1 1 1 1 1 1 1 1 1 1 1 1 1 1 1 0 0 0 0
0 0 0 0 0 0 0 0 0 0 0 0 0 0 0 0 1 1 1 1 2 1 1 1 1 1 1 1 1 1 1 1 1 1 1 0 0 1 1 1 0 0 0 0
0 0 0 0 0 0 0 0 0 0 0 0 0 0 0 0 1 1 1 1 1 1 1 1 1 1 1 1 1 1 1 1 1 1 0 0 0 0 1 1 0 0 0 0
Wind_Speed
2 2 4 7 7 8 6 4 4 6 5 5 5 6 11 13 11 11 11 11 12 12 11 11 12 12 11 10 10 9 9 7 6 3 3 3 3 3 2 3 5 5 4 5
3 5 10 8 8 6 5 4 4 4 3 4 4 5 9 12 15 15 15 13 13 11 10 12 12 11 11 11 10 10 9 8 7 5 4 3 3 2 3 3 4 5 5 4
7 9 7 6 7 5 6 5 5 4 2 1 5 1 3 6 7 9 11 12 13 15 15 14 14 13 12 12 12 10 9 8 7 6 3 2 2 1 1 2 2 4 5 4
7 9 7 6 7 5 6 7 5 3 3 2 4 3 6 8 7 9 11 12 15 15 14 13 14 14 14 13 11 10 9 8 7 7 5 5 4 3 4 3 2 2 4 4
7 5 5 6 8 5 7 5 3 3 3 1 0 3 7 4 6 10 12 14 15 15 16 16 16 15 14 13 12 10 9 8 7 7 7 6 4 3 2 2 3 3 2 3
8 6 5 6 7 5 3 2 4 5 5 0 4 4 6 7 12 12 12 13 13 13 14 14 13 11 10 11 11 10 10 8 7 7 7 6 6 5 4 3 4 3 2 2
7 7 5 3 3 6 3 5 3 5 4 5 3 3 9 8 10 13 13 14 14 13 13 13 13 13 12 12 12 11 10 9 8 8 7 7 7 6 6 5 5 4 3 2
3 7 5 3 5 5 3 8 7 5 5 5 3 4 7 5 6 8 10 12 13 13 13 14 14 14 13 13 12 12 11 10 9 8 8 7 6 5 4 5 5 5 4 4
5 7 6 4 3 5 2 3 8 7 2 1 4 4 6 1 2 5 7 9 10 12 13 13 13 12 12 13 12 12 12 11 10 9 8 6 6 5 5 5 4 4 3 3
6 4 6 4 1 0 5 5 5 5 4 3 4 4 5 4 2 3 6 8 10 10 11 12 12 11 11 11 10 10 10 10 9 8 8 7 6 6 5 5 5 4 4 3
4 4 6 4 2 4 1 2 4 4 5 6 4 7 7 7 5 5 6 8 9 10 11 12 11 10 10 9 9 9 9 8 7 8 7 6 6 6 5 5 5 5 4 4
2 5 3 7 6 5 5 6 7 5 4 4 4 8 5 6 5 5 5 6 7 9 10 11 11 11 10 10 9 9 9 8 8 8 6 6 5 5 5 5 5 5 4 4
3 5 1 7 7 5 1 1 3 5 4 4 4 8 3 2 2 4 6 7 6 7 8 8 9 10 10 10 10 9 9 9 7 7 7 6 5 6 5 5 4 4 4 4
4 4 6 8 7 4 4 4 1 4 3 4 7 7 4 3 3 4 5 7 7 7 8 8 8 8 9 9 9 9 9 8 8 7 7 7 7 6 6 5 4 4 4 4
4 2 3 5 6 3 4 6 4 4 7 7 7 8 10 9 8 7 7 7 7 7 7 8 7 7 8 8 8 8 8 7 8 8 7 7 6 5 5 4 4 4 4 4
3 1 1 4 4 4 5 6 6 6 6 5 4 5 5 5 4 5 7 8 8 8 7 7 8 8 8 8 8 8 7 7 7 8 8 6 6 5 5 5 5 4 4 3
1 2 2 4 5 4 5 6 5 4 4 5 7 7 4 3 5 7 7 9 9 8 7 7 7 7 7 7 7 8 7 7 7 7 7 7 7 6 6 6 5 5 5 4
4 2 2 1 2 6 9 5 2 1 1 1 1 3 5 5 2 3 5 7 7 7 7 6 6 5 5 5 5 5 6 6 7 7 7 7 7 6 6 5 5 5 4 4
7 7 3 3 3 7 7 5 1 2 2 1 3 4 4 6 6 3 1 5 6 7 6 6 6 5 5 5 5 5 6 6 6 6 6 6 7 7 6 6 5 4 4 3
3 5 5 3 3 6 6 6 2 4 1 2 4 6 5 5 3 3 2 4 5 5 4 4 4 4 4 4 5 5 5 5 5 5 5 6 6 6 7 7 5 4 4 4
4 2 3 4 5 7 6 6 3 3 5 2 2 5 5 4 5 5 4 3 4 5 4 5 6 5 4 4 6 5 5 5 5 4 4 4 4 5 5 4 4 3 3 3
2 1 2 2 3 7 4 4 2 4 3 1 1 2 3 3 4 4 4 4 4 4 4 5 5 4 3 4 5 5 4 4 4 4 4 3 3 3 3 4 3 3 3 3
2 5 4 5 6 6 2 1 2 2 2 0 0 1 4 4 3 3 3 3 3 5 4 4 5 4 3 3 4 4 3 3 4 4 4 3 3 3 3 4 4 3 3 3
4 1 1 1 3 2 1 1 1 1 1 0 1 2 3 4 4 4 4 3 2 3 3 4 5 5 3 2 3 3 3 4 5 4 3 3 4 3 3 2 3 3 3 3
5 2 1 3 4 3 3 2 1 2 3 3 3 2 4 6 5 4 3 3 2 3 2 3 4 4 4 4 3 3 4 4 4 4 3 3 3 3 3 2 2 3 3 4
4 4 4 6 6 3 5 3 1 1 1 1 3 3 3 5 5 4 3 3 3 3 2 3 4 5 4 4 3 3 4 5 5 4 3 3 3 3 3 3 2 3 1 2
Wind_Direction
270 83 245 240 224 217 228 238 250 244 215 152 173 184 182 180 180 174 176 176 174 176 171 165 164 163 157 157 158 162 161 164 160 158 159 158 171 173 169 175 176 175 175 173
353 263 242 240 251 244 238 244 251 269 257 158 167 191 187 182 188 184 181 183 179 170 169 166 165 166 165 165 166 166 167 169 169 171 170 166 163 171 180 184 179 181 178 180
222 245 252 254 261 269 257 228 210 207 260 66 108 15 202 208 194 191 190 185 183 178 178 173 171 172 169 171 173 172 170 168 171 165 147 133 107 93 133 175 186 189 183 185
247 252 265 269 263 241 260 244 210 191 119 245 138 196 249 208 198 197 193 186 186 185 180 177 175 175 178 180 175 169 168 166 169 165 161 159 165 175 194 188 184 187 189 187
254 251 249 259 258 243 236 239 213 203 141 105 35 146 269 207 205 207 197 193 190 185 179 180 181 181 181 178 174 171 167 168 169 166 169 168 171 178 172 163 165 178 194 194
250 256 228 235 263 253 239 40 25 44 72 5 230 169 251 211 203 202 198 193 191 186 182 181 180 176 176 176 173 171 169 174 172 169 170 171 171 172 163 172 179 190 198 204
286 279 265 250 297 313 48 84 28 354 4 253 242 190 239 226 202 194 187 188 189 183 181 178 176 175 175 176 176 175 173 176 176 174 176 177 177 174 177 181 186 185 191 206
232 278 263 242 197 219 212 140 160 198 223 270 308 234 255 236 194 182 180 181 182 181 180 178 180 177 176 175 173 174 178 179 179 181 183 182 179 180 185 183 180 185 193 201
191 250 268 248 222 167 183 186 170 148 194 248 277 280 305 324 121 160 165 165 173 177 178 178 175 173 173 175 176 177 178 178 183 185 182 183 183 182 182 178 177 183 189 188
167 245 281 285 343 314 157 159 92 112 153 239 274 255 229 242 206 166 159 163 174 176 171 169 166 167 170 172 171 170 172 179 181 183 186 187 187 186 180 174 180 183 189 191
147 177 289 329 217 218 150 105 109 126 159 166 235 259 220 201 192 184 179 167 165 168 166 166 165 166 165 165 166 168 172 173 175 179 180 182 183 183 175 177 181 183 184 183
149 134 250 265 260 207 179 176 150 154 228 184 187 259 248 183 183 172 167 156 148 155 158 161 161 162 165 168 171 173 174 177 181 179 175 179 177 176 179 185 186 183 184 184
105 108 31 331 336 356 39 173 159 145 145 178 189 257 274 179 152 158 154 146 141 143 143 147 158 165 169 171 174 175 177 180 179 176 176 178 176 178 185 189 188 184 183 187
108 120 167 206 228 253 281 283 224 128 164 215 217 226 252 225 170 167 157 148 145 142 141 145 155 161 165 171 174 174 178 178 173 172 175 181 187 187 189 188 184 184 182 185
82 144 213 233 243 247 263 269 257 219 199 200 224 215 221 207 183 172 160 144 137 135 143 149 153 160 160 162 168 172 175 174 172 170 176 187 187 182 179 179 183 183 185 191
47 130 360 310 299 298 287 275 255 242 225 211 210 246 228 196 159 161 160 155 151 151 158 156 152 156 162 167 170 169 172 174 170 174 183 185 177 177 180 185 183 181 191 197
21 101 69 280 299 339 272 246 247 253 247 197 207 220 176 160 165 175 172 164 161 164 161 157 155 157 163 170 169 171 175 169 169 177 183 182 182 185 189 187 180 187 194 196
164 135 152 222 359 247 246 258 224 143 333 346 172 179 163 162 163 162 161 155 160 158 147 146 146 144 146 152 161 169 164 167 174 180 184 182 180 185 186 181 186 192 188 193
167 156 152 152 215 271 288 297 275 136 324 346 124 127 119 115 75 34 114 141 148 148 146 148 151 146 140 145 152 155 157 161 171 181 185 185 181 181 182 185 191 190 183 191
85 127 141 161 193 238 256 293 297 100 334 312 121 126 126 109 124 230 202 134 125 128 132 138 135 124 129 142 139 145 155 160 179 188 189 185 179 179 186 191 191 189 182 188
9 25 152 184 218 253 272 308 23 121 225 259 139 145 145 166 192 193 166 136 132 132 128 127 125 123 139 142 135 143 160 178 189 184 177 174 178 182 183 184 183 174 174 171
187 178 220 178 207 251 306 21 94 220 236 190 98 128 121 132 124 139 136 130 134 125 123 130 124 120 128 138 138 143 172 188 175 165 163 169 176 179 170 164 168 161 159 159
197 195 197 198 220 249 273 190 228 187 160 199 140 136 125 121 132 138 128 123 128 137 136 134 132 126 124 134 141 151 176 164 151 147 154 160 154 155 158 160 160 149 150 158
288 307 112 282 268 286 324 357 358 50 107 118 135 129 117 124 122 119 120 120 125 125 133 137 134 132 131 132 130 139 137 131 128 135 149 153 148 150 146 151 160 156 161 161
266 317 304 266 278 339 337 335 25 22 34 57 64 91 118 119 118 122 122 133 136 126 124 132 141 138 128 113 108 114 122 121 120 127 137 140 141 140 134 131 154 165 181 179
242 213 215 239 239 214 254 259 167 79 33 110 95 61 84 119 127 121 127 141 140 135 123 125 125 122 119 114 113 114 119 121 122 123 131 142 146 142 136 124 73 40 100 155